STARLINK-32500, 61935

Orbit data source: Space-Track

STARLINK-32500, 61935 is a payload satellite owned by SpaceX/Seattle (US) in LEO that was launched on Mon, 11 Nov 2024 UTC via an FALCON 9 launch vehicle from the Air Force Eastern Test Range (AFETR). Payload-class satellites include a variety of spacecraft equipped with specific instruments for various scientific and technological missions. These include communications satellites like Starlink; space stations such as the ISS; scientific satellites like the Hubble; Earth observation satellites from companies like Planet Labs, Umbra, and HawkEye 360; GPS; miniature CubeSats for education and research; and military/defense satellites.

Loading next visibility...
Identifier
61935, 2024-207Z
Orbit
LEO
Country
Flag of USUS
Related business
Manufacturer
SpaceX/Seattle
Mission
Operational Commercial Communications
Bus & Motor
STARLINK V2M, Unknown motor
Mass
730 kg wet, ~700 kg dry
Launch date (UTC)
2024-11-11 (2 years ago)
Launch vehicle
FALCON 9
Launch site
Air Force Eastern Test Range (AFETR)
Object type
Payload
Rocket body
Debris
Shape & HBR
Box + 2 Pan, 17.7 m
Radar Cross Section
33.884 m², Large (>1 m²)

Expand to show TLE details & history
Last TLE update: 23 hours ago

TLE from 23 hours ago
0 STARLINK-32500
1 61935U 24207Z   26262.71408751  .00016985  00000-0  62513-3 0  9999
2 61935  42.9988 269.6187 0001482 282.7305  77.3381 15.27590085104351
Epoch: 2026-09-19T17:08Z
TLE epoch observation values (Epoch: 2026-09-19T17:08:17.160Z)
Latitude
-0.00003°
Longitude
13.92851°
Altitude
482.571 km
Speed
7.626 km/s
True Right ascension
17h 58m 28s
True Declination
0° 00' 00"
Sunlit
Object was in daylight at epoch
Visualization orbit readout
Latitude
Unknown
Longitude
Unknown
Altitude
Unknown
Speed
Unknown
Apparent Right ascension
Unknown
Apparent Declination
Unknown
Sunlit
N/A
Visualization observer readout
Local Sidereal Time
09:28:03
Azimuth
Unknown
Elevation
Unknown
Doppler factor
Unknown
Orbital elements
Apogee altitude
485.981 km
Perigee altitude
483.947 km
Semi-major axis
6,863.101 km
Eccentricity
0.00015
Inclination
42.9988°
RAAN
269.6187°
Arg. of periapsis
282.7305°
True anomaly
77.35467°
Mean anomaly
77.3381°
Eccentric anomaly
77.34639°
Mean motion
3.81736 °/min
Orbital period
94.31 mins
BSTAR
0.00062513
Loading maneuver chart data...
Computing Atmospheric mass density...
Loading historical data...
Loading historical data...
Loading historical data...
Loading historical data...
Loading historical data...
Loading historical data...
Loading historical data...

Documentation

Showing up to 5 results
|